ProjectID,Date,Electric Generation,Electric Utility Import,Facility Electric Load
,YYYY-MM-DD,kW,kW,kW
414,2017-01-01,0.0,,0.0
414,2017-01-02,0.0,,0.0
414,2017-01-03,0.0,,0.0
414,2017-01-04,0.0,,0.0
414,2017-01-05,0.0,,0.0
414,2017-01-06,0.0,,0.0
414,2017-01-07,0.0,,0.0
414,2017-01-08,0.0,,0.0
414,2017-01-09,0.0,,0.0
414,2017-01-10,0.0,,0.0
414,2017-01-11,0.0,,0.0
414,2017-01-12,54.31041666666666,,54.31041666666666
414,2017-01-13,252.7679166666667,,252.7679166666667
414,2017-01-14,110.1275,,110.1275
414,2017-01-15,193.68750000000003,,193.68750000000003
414,2017-01-16,252.44208333333336,,252.44208333333336
414,2017-01-17,25.504999999999995,,25.504999999999995
414,2017-01-18,39.526666666666664,,39.526666666666664
414,2017-01-19,172.46375,,172.46375
414,2017-01-20,64.1775,,64.1775
414,2017-01-21,127.13208333333331,,127.13208333333331
414,2017-01-22,62.60541666666666,,62.60541666666666
414,2017-01-23,34.6,,34.6
414,2017-01-24,1.1945833333333333,,1.1945833333333333
414,2017-01-25,24.37291666666667,,24.37291666666667
414,2017-01-26,67.51416666666667,,67.51416666666667
414,2017-01-27,81.02666666666667,,81.02666666666667
414,2017-01-28,66.10416666666667,,66.10416666666667
414,2017-01-29,207.49333333333337,,207.49333333333337
414,2017-01-30,274.5625,,274.5625
414,2017-01-31,28.13875,,28.13875
414,2017-02-01,59.37833333333334,,59.37833333333334
414,2017-02-02,231.49458333333337,,231.49458333333337
414,2017-02-03,244.4608333333333,,244.4608333333333
414,2017-02-04,347.62000000000006,,347.62000000000006
414,2017-02-05,133.59958333333333,,133.59958333333333
414,2017-02-06,312.16041666666666,,312.16041666666666
414,2017-02-07,31.083333333333332,,31.083333333333332
414,2017-02-08,232.49083333333337,,232.49083333333337
414,2017-02-09,0.04041666666666666,,0.04041666666666666
414,2017-02-10,3.375,,3.375
414,2017-02-11,5.19625,,5.19625
414,2017-02-12,0.04041666666666666,,0.04041666666666666
414,2017-02-13,0.06416666666666666,,0.06416666666666666
414,2017-02-14,1.0262499999999999,,1.0262499999999999
414,2017-02-15,2.890416666666667,,2.890416666666667
414,2017-02-16,13.394583333333337,,13.394583333333337
414,2017-02-17,21.31,,21.31
414,2017-02-18,60.22416666666667,,60.22416666666667
414,2017-02-19,267.06,,267.06
414,2017-02-20,394.73291666666665,,394.73291666666665
414,2017-02-21,270.1133333333333,,270.1133333333333
414,2017-02-22,101.02374999999999,,101.02374999999999
414,2017-02-23,364.6733333333334,,364.6733333333334
414,2017-02-24,334.1316666666667,,334.1316666666667
414,2017-02-25,251.35541666666666,,251.35541666666666
414,2017-02-26,214.02333333333334,,214.02333333333334
414,2017-02-27,309.2970833333334,,309.2970833333334
414,2017-02-28,334.43083333333334,,334.43083333333334
414,2017-03-01,77.74083333333334,,77.74083333333334
414,2017-03-02,351.70958333333334,,351.70958333333334
414,2017-03-03,326.6116666666667,,326.6116666666667
414,2017-03-04,296.93208333333337,,296.93208333333337
414,2017-03-05,469.45416666666665,,469.45416666666665
414,2017-03-06,363.0416666666667,,363.0416666666667
414,2017-03-07,101.83458333333333,,101.83458333333333
414,2017-03-08,390.8504166666667,,390.8504166666667
414,2017-03-09,322.09666666666664,,322.09666666666664
414,2017-03-10,3.6641666666666666,,3.6641666666666666
414,2017-03-11,15.055,,15.055
414,2017-03-12,29.260416666666668,,29.260416666666668
414,2017-03-13,156.07416666666668,,156.07416666666668
414,2017-03-14,0.03208333333333333,,0.03208333333333333
414,2017-03-15,0.050416666666666665,,0.050416666666666665
414,2017-03-16,0.04416666666666667,,0.04416666666666667
414,2017-03-17,0.05000000000000001,,0.05000000000000001
414,2017-03-18,0.11125000000000002,,0.11125000000000002
414,2017-03-19,0.05125000000000001,,0.05125000000000001
414,2017-03-20,0.13916666666666666,,0.13916666666666666
414,2017-03-21,5.28,,5.28
414,2017-03-22,28.553333333333338,,28.553333333333338
414,2017-03-23,52.29000000000001,,52.29000000000001
414,2017-03-24,62.666666666666664,,62.666666666666664
414,2017-03-25,101.0779166666667,,101.0779166666667
414,2017-03-26,93.05333333333333,,93.05333333333333
414,2017-03-27,153.7566666666667,,153.7566666666667
414,2017-03-28,67.30999999999999,,67.30999999999999
414,2017-03-29,488.935,,488.935
414,2017-03-30,390.5275,,390.5275
414,2017-03-31,46.05833333333334,,46.05833333333334
414,2017-04-01,221.93500000000003,,221.93500000000003
414,2017-04-02,535.8725000000001,,535.8725000000001
414,2017-04-03,404.9583333333333,,404.9583333333333
414,2017-04-04,85.31375,,85.31375
414,2017-04-05,326.7395833333333,,326.7395833333333
414,2017-04-06,47.376250000000006,,47.376250000000006
414,2017-04-07,213.8154166666667,,213.8154166666667
414,2017-04-08,509.24083333333334,,509.24083333333334
414,2017-04-09,535.2566666666667,,535.2566666666667
414,2017-04-10,474.7787500000001,,474.7787500000001
414,2017-04-11,482.8958333333333,,482.8958333333333
414,2017-04-12,249.96625000000003,,249.96625000000003
414,2017-04-13,480.2341666666667,,480.2341666666667
414,2017-04-14,517.3229166666666,,517.3229166666666
414,2017-04-15,374.0104166666667,,374.0104166666667
414,2017-04-16,370.0625,,370.0625
414,2017-04-17,412.93458333333325,,412.93458333333325
414,2017-04-18,571.1195833333333,,571.1195833333333
414,2017-04-19,349.61208333333326,,349.61208333333326
414,2017-04-20,293.71333333333337,,293.71333333333337
414,2017-04-21,132.73416666666665,,132.73416666666665
414,2017-04-22,127.52833333333332,,127.52833333333332
414,2017-04-23,566.9766666666668,,566.9766666666668
414,2017-04-24,263.9425,,263.9425
414,2017-04-25,77.65083333333332,,77.65083333333332
414,2017-04-26,132.63791666666665,,132.63791666666665
414,2017-04-27,189.23166666666665,,189.23166666666665
414,2017-04-28,414.0595833333334,,414.0595833333334
414,2017-04-29,310.28375000000005,,310.28375000000005
414,2017-04-30,152.25791666666666,,152.25791666666666
414,2017-05-01,198.255,,198.255
414,2017-05-02,280.3725,,280.3725
414,2017-05-03,328.53124999999994,,328.53124999999994
414,2017-05-04,428.8645833333334,,428.8645833333334
414,2017-05-05,66.62500000000001,,66.62500000000001
414,2017-05-06,203.59375,,203.59375
414,2017-05-07,194.98708333333332,,194.98708333333332
414,2017-05-08,275.0441666666666,,275.0441666666666
414,2017-05-09,376.1429166666666,,376.1429166666666
414,2017-05-10,435.3020833333333,,435.3020833333333
414,2017-05-11,390.36708333333337,,390.36708333333337
414,2017-05-12,380.3541666666667,,380.3541666666667
414,2017-05-13,82.06791666666668,,82.06791666666668
414,2017-05-14,328.7366666666666,,328.7366666666666
414,2017-05-15,286.3983333333333,,286.3983333333333
414,2017-05-16,306.7654166666667,,306.7654166666667
414,2017-05-17,448.4945833333333,,448.4945833333333
414,2017-05-18,104.67166666666667,,104.67166666666667
414,2017-05-19,192.40333333333334,,192.40333333333334
414,2017-05-20,285.935,,285.935
414,2017-05-21,463.5804166666666,,463.5804166666666
414,2017-05-22,83.315,,83.315
414,2017-05-23,281.28666666666663,,281.28666666666663
414,2017-05-24,415.62999999999994,,415.62999999999994
414,2017-05-25,86.63833333333334,,86.63833333333334
414,2017-05-26,347.5054166666667,,347.5054166666667
414,2017-05-27,302.09125,,302.09125
414,2017-05-28,369.5520833333333,,369.5520833333333
414,2017-05-29,126.52083333333333,,126.52083333333333
414,2017-05-30,115.95083333333334,,115.95083333333334
414,2017-05-31,418.82,,418.82
414,2017-06-01,538.4583333333334,,538.4583333333334
414,2017-06-02,505.8020833333333,,505.8020833333333
414,2017-06-03,496.78375,,496.78375
414,2017-06-04,230.58875000000003,,230.58875000000003
414,2017-06-05,256.96583333333336,,256.96583333333336
414,2017-06-06,186.54416666666665,,186.54416666666665
414,2017-06-07,149.86208333333335,,149.86208333333335
414,2017-06-08,474.8645833333333,,474.8645833333333
414,2017-06-09,526.6329166666666,,526.6329166666666
414,2017-06-10,464.34125,,464.34125
414,2017-06-11,566.5908333333333,,566.5908333333333
414,2017-06-12,574.2708333333334,,574.2708333333334
414,2017-06-13,532.9399999999999,,532.9399999999999
414,2017-06-14,571.3566666666667,,571.3566666666667
414,2017-06-15,409.1145833333333,,409.1145833333333
414,2017-06-16,165.65125,,165.65125
414,2017-06-17,270.7133333333333,,270.7133333333333
414,2017-06-18,382.61958333333337,,382.61958333333337
414,2017-06-19,287.5366666666667,,287.5366666666667
414,2017-06-20,572.3904166666666,,572.3904166666666
414,2017-06-21,480.7445833333333,,480.7445833333333
414,2017-06-22,551.9587500000001,,551.9587500000001
414,2017-06-23,287.4945833333333,,287.4945833333333
414,2017-06-24,573.8229166666666,,573.8229166666666
414,2017-06-25,471.44250000000005,,471.44250000000005
414,2017-06-26,542.6770833333334,,542.6770833333334
414,2017-06-27,499.88541666666674,,499.88541666666674
414,2017-06-28,566.8020833333334,,566.8020833333334
414,2017-06-29,487.4633333333333,,487.4633333333333
414,2017-06-30,432.1716666666667,,432.1716666666667
414,2017-07-01,343.0783333333333,,343.0783333333333
414,2017-07-02,500.87000000000006,,500.87000000000006
414,2017-07-03,522.1408333333334,,522.1408333333334
414,2017-07-04,577.2966666666667,,577.2966666666667
414,2017-07-05,524.5154166666666,,524.5154166666666
414,2017-07-06,397.02083333333326,,397.02083333333326
414,2017-07-07,286.245,,286.245
414,2017-07-08,417.0729166666667,,417.0729166666667
414,2017-07-09,603.9741666666666,,603.9741666666666
414,2017-07-10,435.9375,,435.9375
414,2017-07-11,347.28625000000005,,347.28625000000005
414,2017-07-12,406.09375,,406.09375
414,2017-07-13,272.2970833333333,,272.2970833333333
414,2017-07-14,118.6875,,118.6875
414,2017-07-15,455.2658333333334,,455.2658333333334
414,2017-07-16,551.0208333333334,,551.0208333333334
414,2017-07-17,473.5104166666666,,473.5104166666666
414,2017-07-18,426.18250000000006,,426.18250000000006
414,2017-07-19,576.6825,,576.6825
414,2017-07-20,465.84374999999994,,465.84374999999994
414,2017-07-21,541.5783333333334,,541.5783333333334
414,2017-07-22,395.12000000000006,,395.12000000000006
414,2017-07-23,311.97375,,311.97375
414,2017-07-24,208.30208333333334,,208.30208333333334
414,2017-07-25,195.125,,195.125
414,2017-07-26,427.4845833333334,,427.4845833333334
414,2017-07-27,224.6925,,224.6925
414,2017-07-28,388.6770833333333,,388.6770833333333
414,2017-07-29,502.8333333333333,,502.8333333333333
414,2017-07-30,587.5937500000001,,587.5937500000001
414,2017-07-31,535.5624999999999,,535.5624999999999
414,2017-08-01,526.0570833333333,,526.0570833333333
414,2017-08-02,350.0,,350.0
414,2017-08-03,476.0783333333334,,476.0783333333334
414,2017-08-04,410.1458333333333,,410.1458333333333
414,2017-08-05,320.87,,320.87
414,2017-08-06,432.2033333333334,,432.2033333333334
414,2017-08-07,68.39583333333333,,68.39583333333333
414,2017-08-08,413.76041666666674,,413.76041666666674
414,2017-08-09,543.1250000000001,,543.1250000000001
414,2017-08-10,459.09375,,459.09375
414,2017-08-11,287.9220833333333,,287.9220833333333
414,2017-08-12,376.43749999999994,,376.43749999999994
414,2017-08-13,439.08333333333326,,439.08333333333326
414,2017-08-14,332.8229166666667,,332.8229166666667
414,2017-08-15,152.98958333333334,,152.98958333333334
414,2017-08-16,471.28624999999994,,471.28624999999994
414,2017-08-17,472.4166666666666,,472.4166666666666
414,2017-08-18,196.03125,,196.03125
414,2017-08-19,468.4166666666667,,468.4166666666667
414,2017-08-20,499.2291666666666,,499.2291666666666
414,2017-08-21,430.22416666666663,,430.22416666666663
414,2017-08-22,454.4116666666667,,454.4116666666667
414,2017-08-23,523.1408333333333,,523.1408333333333
414,2017-08-24,533.5624999999999,,533.5624999999999
414,2017-08-25,391.14583333333326,,391.14583333333326
414,2017-08-26,516.90625,,516.90625
414,2017-08-27,477.10416666666674,,477.10416666666674
414,2017-08-28,374.66666666666674,,374.66666666666674
414,2017-08-29,94.98458333333333,,94.98458333333333
414,2017-08-30,503.8070833333333,,503.8070833333333
414,2017-08-31,336.0466666666667,,336.0466666666667
414,2017-09-01,536.4633333333333,,536.4633333333333
414,2017-09-02,321.4533333333333,,321.4533333333333
414,2017-09-03,151.97916666666666,,151.97916666666666
414,2017-09-04,494.61958333333337,,494.61958333333337
414,2017-09-05,327.5104166666667,,327.5104166666667
414,2017-09-06,60.760416666666664,,60.760416666666664
414,2017-09-07,317.3595833333333,,317.3595833333333
414,2017-09-08,401.2708333333333,,401.2708333333333
414,2017-09-09,358.75000000000006,,358.75000000000006
414,2017-09-10,480.9375,,480.9375
414,2017-09-11,466.8333333333333,,466.8333333333333
414,2017-09-12,400.9479166666667,,400.9479166666667
414,2017-09-13,354.67708333333326,,354.67708333333326
414,2017-09-14,179.15083333333334,,179.15083333333334
414,2017-09-15,328.5679166666667,,328.5679166666667
414,2017-09-16,385.3645833333333,,385.3645833333333
414,2017-09-17,338.6041666666667,,338.6041666666667
414,2017-09-18,350.7395833333334,,350.7395833333334
414,2017-09-19,241.52083333333334,,241.52083333333334
414,2017-09-20,182.03625,,182.03625
414,2017-09-21,280.9583333333333,,280.9583333333333
414,2017-09-22,452.6091666666666,,452.6091666666666
414,2017-09-23,432.34375000000006,,432.34375000000006
414,2017-09-24,413.65625,,413.65625
414,2017-09-25,392.21875,,392.21875
414,2017-09-26,372.8804166666667,,372.8804166666667
414,2017-09-27,366.2291666666667,,366.2291666666667
414,2017-09-28,449.6875,,449.6875
414,2017-09-29,314.96875,,314.96875
414,2017-09-30,202.745,,202.745
414,2017-10-01,435.36958333333337,,435.36958333333337
414,2017-10-02,434.18249999999995,,434.18249999999995
414,2017-10-03,388.0208333333334,,388.0208333333334
414,2017-10-04,408.1041666666667,,408.1041666666667
414,2017-10-05,278.1458333333333,,278.1458333333333
414,2017-10-06,353.78125,,353.78125
414,2017-10-07,280.6041666666667,,280.6041666666667
414,2017-10-08,151.45833333333334,,151.45833333333334
414,2017-10-09,87.02083333333333,,87.02083333333333
414,2017-10-10,346.90625,,346.90625
414,2017-10-11,175.11458333333334,,175.11458333333334
414,2017-10-12,261.8854166666667,,261.8854166666667
414,2017-10-13,293.2083333333333,,293.2083333333333
414,2017-10-14,147.3125,,147.3125
414,2017-10-15,171.41666666666666,,171.41666666666666
414,2017-10-16,191.89583333333334,,191.89583333333334
414,2017-10-17,386.4791666666667,,386.4791666666667
414,2017-10-18,362.84375,,362.84375
414,2017-10-19,373.2395833333333,,373.2395833333333
414,2017-10-20,363.9895833333333,,363.9895833333333
414,2017-10-21,332.21875,,332.21875
414,2017-10-22,311.2083333333333,,311.2083333333333
414,2017-10-23,153.25,,153.25
414,2017-10-24,104.15625,,104.15625
414,2017-10-25,214.70833333333334,,214.70833333333334
414,2017-10-26,98.01041666666667,,98.01041666666667
414,2017-10-27,336.2708333333333,,336.2708333333333
414,2017-10-28,305.2708333333333,,305.2708333333333
414,2017-10-29,32.395833333333336,,32.395833333333336
414,2017-10-30,226.125,,226.125
414,2017-10-31,303.8125,,303.8125
414,2017-11-01,42.541666666666664,,42.541666666666664
414,2017-11-02,151.75,,151.75
414,2017-11-03,176.23958333333334,,176.23958333333334
414,2017-11-04,270.3125,,270.3125
414,2017-11-05,67.15625,,67.15625
414,2017-11-06,64.71875,,64.71875
414,2017-11-07,98.77083333333333,,98.77083333333333
414,2017-11-08,255.22916666666666,,255.22916666666666
414,2017-11-09,182.0,,182.0
414,2017-11-10,290.0520833333333,,290.0520833333333
414,2017-11-11,313.8229166666667,,313.8229166666667
414,2017-11-12,282.1041666666667,,282.1041666666667
414,2017-11-13,96.65625,,96.65625
414,2017-11-14,133.41666666666666,,133.41666666666666
414,2017-11-15,279.0833333333333,,279.0833333333333
414,2017-11-16,144.91666666666666,,144.91666666666666
414,2017-11-17,274.7604166666667,,274.7604166666667
414,2017-11-18,57.0625,,57.0625
414,2017-11-19,87.86458333333333,,87.86458333333333
414,2017-11-20,169.8125,,169.8125
414,2017-11-21,245.40625,,245.40625
414,2017-11-22,122.55208333333333,,122.55208333333333
414,2017-11-23,277.0520833333333,,277.0520833333333
414,2017-11-24,259.4270833333333,,259.4270833333333
414,2017-11-25,201.42708333333334,,201.42708333333334
414,2017-11-26,179.4375,,179.4375
414,2017-11-27,207.09375,,207.09375
414,2017-11-28,243.44791666666666,,243.44791666666666
414,2017-11-29,246.44791666666666,,246.44791666666666
414,2017-11-30,195.32291666666666,,195.32291666666666
414,2017-12-01,161.35416666666666,,161.35416666666666
414,2017-12-02,182.96875,,182.96875
414,2017-12-03,70.07291666666667,,70.07291666666667
414,2017-12-04,82.9375,,82.9375
414,2017-12-05,49.729166666666664,,49.729166666666664
414,2017-12-06,183.91666666666666,,183.91666666666666
414,2017-12-07,247.58333333333334,,247.58333333333334
414,2017-12-08,97.36458333333333,,97.36458333333333
414,2017-12-09,15.927083333333334,,15.927083333333334
414,2017-12-10,3.65625,,3.65625
414,2017-12-11,8.333333333333334,,8.333333333333334
414,2017-12-12,20.395833333333332,,20.395833333333332
414,2017-12-13,176.70833333333334,,176.70833333333334
414,2017-12-14,11.34375,,11.34375
414,2017-12-15,5.135416666666667,,5.135416666666667
414,2017-12-16,5.760416666666667,,5.760416666666667
414,2017-12-17,6.135416666666667,,6.135416666666667
414,2017-12-18,15.979166666666666,,15.979166666666666
414,2017-12-19,142.875,,142.875
414,2017-12-20,161.73958333333334,,161.73958333333334
414,2017-12-21,231.98958333333334,,231.98958333333334
414,2017-12-22,34.260416666666664,,34.260416666666664
414,2017-12-23,8.28125,,8.28125
414,2017-12-24,142.98958333333334,,142.98958333333334
414,2017-12-25,58.864583333333336,,58.864583333333336
414,2017-12-26,199.90625,,199.90625
414,2017-12-27,223.83333333333334,,223.83333333333334
414,2017-12-28,238.80208333333334,,238.80208333333334
414,2017-12-29,206.23958333333334,,206.23958333333334
414,2017-12-30,4.65625,,4.65625
414,2017-12-31,12.729166666666666,,12.729166666666666
414,2018-01-01,30.322916666666668,,30.322916666666668
414,2018-01-02,35.958333333333336,,35.958333333333336
414,2018-01-03,45.5,,45.5
414,2018-01-04,0.09375,,0.09375
414,2018-01-05,109.44791666666667,,109.44791666666667
414,2018-01-06,144.92708333333334,,144.92708333333334
414,2018-01-07,163.44791666666666,,163.44791666666666
414,2018-01-08,57.8125,,57.8125
414,2018-01-09,127.36458333333333,,127.36458333333333
414,2018-01-10,206.5,,206.5
414,2018-01-11,79.46875,,79.46875
414,2018-01-12,32.541666666666664,,32.541666666666664
414,2018-01-13,235.46875,,235.46875
414,2018-01-14,287.7291666666667,,287.7291666666667
414,2018-01-15,255.19791666666666,,255.19791666666666
414,2018-01-16,50.729166666666664,,50.729166666666664
414,2018-01-17,0.010416666666666666,,0.010416666666666666
414,2018-01-18,2.9479166666666665,,2.9479166666666665
414,2018-01-19,1.0625,,1.0625
414,2018-01-20,3.7708333333333335,,3.7708333333333335
414,2018-01-21,78.73958333333333,,78.73958333333333
414,2018-01-22,76.19791666666667,,76.19791666666667
414,2018-01-23,120.07291666666667,,120.07291666666667
414,2018-01-24,150.46875,,150.46875
414,2018-01-25,322.90625,,322.90625
414,2018-01-26,296.15625,,296.15625
414,2018-01-27,223.63541666666666,,223.63541666666666
414,2018-01-28,89.05208333333333,,89.05208333333333
414,2018-01-29,217.85416666666666,,217.85416666666666
414,2018-01-30,117.65625,,117.65625
414,2018-01-31,298.6354166666667,,298.6354166666667
414,2018-02-01,70.53125,,70.53125
414,2018-02-02,189.47916666666666,,189.47916666666666
414,2018-02-03,314.8645833333333,,314.8645833333333
414,2018-02-04,71.82291666666667,,71.82291666666667
414,2018-02-05,346.15625,,346.15625
414,2018-02-06,145.8125,,145.8125
414,2018-02-07,1.34375,,1.34375
414,2018-02-08,21.375,,21.375
414,2018-02-09,11.791666666666666,,11.791666666666666
414,2018-02-10,8.520833333333334,,8.520833333333334
414,2018-02-11,32.520833333333336,,32.520833333333336
414,2018-02-12,211.29166666666666,,211.29166666666666
414,2018-02-13,360.9479166666667,,360.9479166666667
414,2018-02-14,127.76041666666667,,127.76041666666667
414,2018-02-15,167.0,,167.0
414,2018-02-16,67.78125,,67.78125
414,2018-02-17,293.8020833333333,,293.8020833333333
414,2018-02-18,14.322916666666666,,14.322916666666666
414,2018-02-19,38.0625,,38.0625
414,2018-02-20,272.6666666666667,,272.6666666666667
414,2018-02-21,347.9791666666667,,347.9791666666667
414,2018-02-22,44.09375,,44.09375
414,2018-02-23,45.333333333333336,,45.333333333333336
414,2018-02-24,141.48958333333334,,141.48958333333334
414,2018-02-25,45.09375,,45.09375
414,2018-02-26,244.77083333333334,,244.77083333333334
414,2018-02-27,415.53125,,415.53125
414,2018-02-28,365.03125,,365.03125
414,2018-03-01,215.96875,,215.96875
414,2018-03-02,0.4270833333333333,,0.4270833333333333
414,2018-03-03,19.916666666666668,,19.916666666666668
414,2018-03-04,118.125,,118.125
414,2018-03-05,272.9895833333333,,272.9895833333333
414,2018-03-06,442.2083333333333,,442.2083333333333
414,2018-03-07,0.9375,,0.9375
414,2018-03-08,0.03125,,0.03125
414,2018-03-09,0.020833333333333332,,0.020833333333333332
414,2018-03-10,0.03125,,0.03125
414,2018-03-11,0.7083333333333334,,0.7083333333333334
414,2018-03-12,1.2708333333333333,,1.2708333333333333
414,2018-03-13,0.14583333333333334,,0.14583333333333334
414,2018-03-14,2.1458333333333335,,2.1458333333333335
414,2018-03-15,9.010416666666666,,9.010416666666666
414,2018-03-16,12.40625,,12.40625
414,2018-03-17,30.8125,,30.8125
414,2018-03-18,82.23958333333333,,82.23958333333333
414,2018-03-19,206.42708333333334,,206.42708333333334
414,2018-03-20,139.84375,,139.84375
414,2018-03-21,54.854166666666664,,54.854166666666664
414,2018-03-22,183.84375,,183.84375
414,2018-03-23,340.3645833333333,,340.3645833333333
414,2018-03-24,523.2395833333334,,523.2395833333334
414,2018-03-25,355.9583333333333,,355.9583333333333
414,2018-03-26,531.0,,531.0
414,2018-03-27,293.125,,293.125
414,2018-03-28,224.54166666666666,,224.54166666666666
414,2018-03-29,72.16666666666667,,72.16666666666667
414,2018-03-30,133.51041666666666,,133.51041666666666
414,2018-03-31,544.84375,,544.84375
414,2018-04-01,302.2083333333333,,302.2083333333333
414,2018-04-02,19.822916666666668,,19.822916666666668
414,2018-04-03,42.90625,,42.90625
414,2018-04-04,184.01041666666666,,184.01041666666666
414,2018-04-05,471.9270833333333,,471.9270833333333
414,2018-04-06,186.94791666666666,,186.94791666666666
414,2018-04-07,345.9791666666667,,345.9791666666667
414,2018-04-08,372.0833333333333,,372.0833333333333
414,2018-04-09,494.1770833333333,,494.1770833333333
414,2018-04-10,267.2291666666667,,267.2291666666667
414,2018-04-11,423.1354166666667,,423.1354166666667
414,2018-04-12,245.82291666666666,,245.82291666666666
414,2018-04-13,331.875,,331.875
414,2018-04-14,522.5833333333334,,522.5833333333334
414,2018-04-15,101.625,,101.625
414,2018-04-16,130.51041666666666,,130.51041666666666
414,2018-04-17,207.88541666666666,,207.88541666666666
414,2018-04-18,346.4895833333333,,346.4895833333333
414,2018-04-19,173.91666666666666,,173.91666666666666
414,2018-04-20,531.8541666666666,,531.8541666666666
414,2018-04-21,589.375,,589.375
414,2018-04-22,595.125,,595.125
414,2018-04-23,589.5520833333334,,589.5520833333334
414,2018-04-24,540.5416666666666,,540.5416666666666
414,2018-04-25,132.8125,,132.8125
414,2018-04-26,460.5208333333333,,460.5208333333333
414,2018-04-27,94.0625,,94.0625
414,2018-04-28,411.8645833333333,,411.8645833333333
414,2018-04-29,302.21875,,302.21875
414,2018-04-30,143.29166666666666,,143.29166666666666
414,2018-05-01,596.2395833333334,,596.2395833333334
414,2018-05-02,562.03125,,562.03125
414,2018-05-03,468.8958333333333,,468.8958333333333
414,2018-05-04,300.53125,,300.53125
414,2018-05-05,477.65625,,477.65625
414,2018-05-06,115.11458333333333,,115.11458333333333
414,2018-05-07,488.8125,,488.8125